Weather in Padali

Russia / Khabarovsk Krai     50°12′58″N   136°38′53″E
temp.,
°C
wind,
m/s
gust,
m/s
humid.,
%
clouds,
%
prec.,
mm/h
press.,
hPa
HPBL,
m
28 september, tue
tue2801:00+14ssw51393100 2.2 1011677
04:00+14ssw4998100 2.3 1010430
07:00+14sw249899 0.1 1011140
10:00+17ssw228273 0.3 1012325
13:00+19ssw336430 0.1 1012975
16:00+20ssw335654 0.1 10111053
19:00+15ssw2267100 0.0 101229
22:00+13ssw236772 0.0 101249
29 september, wed
wed2901:00+11ssw22825 0.0 101242
04:00+10s249538 0.0 101187
07:00+10ssw249713 0.0 1010101
10:00+16ssw497359 0.0 1009601
13:00+19ssw51062100 0.0 10071087
16:00+20sw51062100 0.0 10051483
19:00+17ssw277399 0.0 1005249
22:00+17s267685 0.0 1004167
30 september, thu
thu3001:00+13s259297 0.0 1003128
04:00+13ssw3897100 0.5 1002332
07:00+14ssw3898100 0.9 1001531
10:00+14ssw6108691 1.0 1002677
13:00+17sw810515 0.0 10021338
16:00+17sw811355 0.0 10021568
19:00+13sw713410 0.0 1003857
22:00+10sw51245100 0.0 1005593
1 october, fri
fri101:00+8wsw365581 0.0 1006231
04:00+6sw24673 0.0 1007102
07:00+5ssw37695 0.0 1008177
10:00+11ssw6115020 0.0 10091267
13:00+14sw710396 0.0 10082031
16:00+14sw694080 0.0 10082241
19:00+10sw411543 0.0 1009565
22:00+8sw412655 0.0 1010406
2 october, sat
sat201:00+6ssw310781 0.0 1011249
04:00+4ssw26820 0.0 1012135
07:00+3sw22824 0.0 101334
10:00+10sw35531 0.0 1014563
13:00+14sw57385 0.0 10121830
16:00+14sw563210 0.0 10122099
19:00+9sw225095 0.0 101318
22:00+7nnw115935 0.0 101415